Location: Recife
(8.0585°S, 34.8848°W)
Time: 21:35:57
(UTC-03:00)

A-11 Canister half - Pass Details

Date: 16 April 2026
Orbit: 1523 x 1685 km, 47.3° (Epoch: 12 May)

Event Time Altitude Azimuth Distance (km) Brightness Sun altitude
Rises 22:50:22 0° 262° (W) 4,802 - -82.5°
Reaches altitude 10° 22:56:24 10° 291° (WNW) 3,853 - -83.9°
Maximum altitude 22:59:41 12° 311° (NW) 3,710 - -84.6°
Drops below altitude 10° 23:03:00 10° 331° (NNW) 3,887 - -85.3°
Sets 23:09:17 0° 360° (N) 4,899 - -86.6°
